Location: Chamerau
(49.1969°N, 12.7525°E)
Time: 15:45:07
(UTC+00:00)

Cosmos 2098 Rocket - Pass Details

Date: 18 September 2020
Orbit: 366 x 1185 km, 82.9° (Epoch: 24 October)

Event Time Altitude Azimuth Distance (km) Brightness Sun altitude
Rises 20:51:03 0° 349° (NNW) 4,073 8.1 -32.0°
Reaches altitude 10° 20:53:52 10° 347° (NNW) 3,067 7.3 -32.3°
Enters shadow 21:00:53 68° 276° (W) 1,130 4.3 -33.0°
